contact:dominique.lefevre@mio.osupytheas.fr, maurice.libes@osupytheas.fr, didier.mallarino@osupytheas.fr
Project:EMSO http://www.emso-fr.org/EMSO-France
Depth: 2436.0 m
Title:EMSO Ligure Ouest : Data MII capteur MICROCAT
DateTime_Computer,Latitude,Longitude,Temperature,Conductivity,Pressure,DateTime_Instrument
DateTime_Computer,Latitude,Longitude,degC,S m-1,dbar,DateTime_Instrument
2022-06-25T00:01:37Z,42.805,6.029,13.3001,4.60036,2470.507,2022-6-25T02:03:21Z
2022-06-25T00:04:40Z,42.805,6.029,13.3001,4.60040,2470.516,2022-6-25T02:06:25Z
2022-06-25T00:07:43Z,42.805,6.029,13.3006,4.60037,2470.53,2022-6-25T02:09:28Z
2022-06-25T00:10:46Z,42.805,6.029,13.3006,4.60041,2470.53,2022-6-25T02:12:31Z
2022-06-25T00:13:50Z,42.805,6.029,13.3004,4.60036,2470.507,2022-6-25T02:15:34Z
2022-06-25T00:16:53Z,42.805,6.029,13.3005,4.60036,2470.53,2022-6-25T02:18:37Z
2022-06-25T00:19:56Z,42.805,6.029,13.3002,4.60035,2470.53,2022-6-25T02:21:40Z
2022-06-25T00:22:59Z,42.805,6.029,13.3004,4.60038,2470.553,2022-6-25T02:24:43Z
2022-06-25T00:26:02Z,42.805,6.029,13.3002,4.60035,2470.553,2022-6-25T02:27:46Z
2022-06-25T00:29:05Z,42.805,6.029,13.3003,4.60035,2470.567,2022-6-25T02:30:49Z
2022-06-25T00:32:08Z,42.805,6.029,13.3009,4.60036,2470.553,2022-6-25T02:33:53Z
2022-06-25T00:35:11Z,42.805,6.029,13.3005,4.60036,2470.544,2022-6-25T02:36:56Z
2022-06-25T00:38:15Z,42.805,6.029,13.3006,4.60037,2470.553,2022-6-25T02:39:59Z
2022-06-25T00:41:18Z,42.805,6.029,13.2999,4.60040,2470.6,2022-6-25T02:43:02Z
2022-06-25T00:44:21Z,42.805,6.029,13.3003,4.60037,2470.567,2022-6-25T02:46:05Z
2022-06-25T00:47:24Z,42.805,6.029,13.3003,4.60037,2470.553,2022-6-25T02:49:08Z
2022-06-25T00:50:27Z,42.805,6.029,13.3006,4.60034,2470.553,2022-6-25T02:52:11Z
2022-06-25T00:53:30Z,42.805,6.029,13.3004,4.60037,2470.567,2022-6-25T02:55:14Z
2022-06-25T00:56:33Z,42.805,6.029,13.3007,4.60037,2470.553,2022-6-25T02:58:18Z
2022-06-25T00:59:36Z,42.805,6.029,13.3002,4.60034,2470.553,2022-6-25T03:01:21Z
2022-06-25T01:02:39Z,42.805,6.029,13.3003,4.60036,2470.577,2022-6-25T03:04:24Z
2022-06-25T01:05:43Z,42.805,6.029,13.3004,4.60035,2470.577,2022-6-25T03:07:27Z
2022-06-25T01:08:46Z,42.805,6.029,13.3006,4.60035,2470.567,2022-6-25T03:10:30Z
2022-06-25T01:11:49Z,42.805,6.029,13.3006,4.60036,2470.591,2022-6-25T03:13:33Z
2022-06-25T01:14:52Z,42.805,6.029,13.3004,4.60035,2470.553,2022-6-25T03:16:36Z
2022-06-25T01:17:55Z,42.805,6.029,13.3004,4.60036,2470.567,2022-6-25T03:19:39Z
2022-06-25T01:20:58Z,42.805,6.029,13.3008,4.60036,2470.577,2022-6-25T03:22:43Z
2022-06-25T01:24:01Z,42.805,6.029,13.3004,4.60037,2470.567,2022-6-25T03:25:46Z
2022-06-25T01:27:04Z,42.805,6.029,13.3001,4.60041,2470.577,2022-6-25T03:28:49Z
2022-06-25T01:30:08Z,42.805,6.029,13.3005,4.60037,2470.539,2022-6-25T03:31:52Z
2022-06-25T01:33:11Z,42.805,6.029,13.3007,4.60036,2470.553,2022-6-25T03:34:55Z
2022-06-25T01:36:14Z,42.805,6.029,13.3005,4.60038,2470.591,2022-6-25T03:37:58Z
2022-06-25T01:39:17Z,42.805,6.029,13.3004,4.60036,2470.577,2022-6-25T03:41:01Z
2022-06-25T01:42:20Z,42.805,6.029,13.3004,4.60039,2470.577,2022-6-25T03:44:04Z
2022-06-25T01:45:23Z,42.805,6.029,13.3005,4.60038,2470.577,2022-6-25T03:47:08Z
2022-06-25T01:48:26Z,42.805,6.029,13.3006,4.60036,2470.577,2022-6-25T03:50:11Z
2022-06-25T01:51:29Z,42.805,6.029,13.3001,4.60038,2470.577,2022-6-25T03:53:14Z
2022-06-25T01:54:33Z,42.805,6.029,13.3004,4.60037,2470.6,2022-6-25T03:56:17Z
2022-06-25T01:57:36Z,42.805,6.029,13.3004,4.60036,2470.577,2022-6-25T03:59:20Z
2022-06-25T02:00:39Z,42.805,6.029,13.3006,4.60037,2470.577,2022-6-25T04:02:23Z
2022-06-25T02:03:42Z,42.805,6.029,13.3004,4.60039,2470.614,2022-6-25T04:05:26Z
2022-06-25T02:06:45Z,42.805,6.029,13.3006,4.60036,2470.586,2022-6-25T04:08:29Z
2022-06-25T02:09:48Z,42.805,6.029,13.3006,4.60036,2470.6,2022-6-25T04:11:32Z
2022-06-25T02:12:51Z,42.805,6.029,13.3003,4.60037,2470.614,2022-6-25T04:14:36Z
2022-06-25T02:15:54Z,42.805,6.029,13.3003,4.60037,2470.637,2022-6-25T04:17:39Z
2022-06-25T02:18:58Z,42.805,6.029,13.3006,4.60036,2470.591,2022-6-25T04:20:42Z
2022-06-25T02:22:01Z,42.805,6.029,13.3005,4.60037,2470.577,2022-6-25T04:23:45Z
2022-06-25T02:25:04Z,42.805,6.029,13.3007,4.60035,2470.6,2022-6-25T04:26:48Z
2022-06-25T02:28:07Z,42.805,6.029,13.3008,4.60039,2470.624,2022-6-25T04:29:51Z
2022-06-25T02:31:10Z,42.805,6.029,13.3004,4.60039,2470.553,2022-6-25T04:32:54Z
2022-06-25T02:34:13Z,42.805,6.029,13.3007,4.60037,2470.6,2022-6-25T04:35:57Z
2022-06-25T02:37:16Z,42.805,6.029,13.3004,4.60036,2470.624,2022-6-25T04:39:01Z
2022-06-25T02:40:19Z,42.805,6.029,13.3008,4.60037,2470.624,2022-6-25T04:42:04Z
2022-06-25T02:43:23Z,42.805,6.029,13.3006,4.60038,2470.637,2022-6-25T04:45:07Z
2022-06-25T02:46:26Z,42.805,6.029,13.3002,4.60039,2470.6,2022-6-25T04:48:10Z
2022-06-25T02:49:29Z,42.805,6.029,13.3004,4.60039,2470.577,2022-6-25T04:51:13Z
2022-06-25T02:52:32Z,42.805,6.029,13.3002,4.60036,2470.6,2022-6-25T04:54:16Z
2022-06-25T02:55:35Z,42.805,6.029,13.3001,4.60038,2470.624,2022-6-25T04:57:19Z
2022-06-25T02:58:38Z,42.805,6.029,13.3007,4.60038,2470.6,2022-6-25T05:00:22Z
2022-06-25T03:01:41Z,42.805,6.029,13.3004,4.60036,2470.661,2022-6-25T05:03:26Z
2022-06-25T03:04:44Z,42.805,6.029,13.3004,4.60039,2470.614,2022-6-25T05:06:29Z
2022-06-25T03:07:47Z,42.805,6.029,13.3007,4.60039,2470.6,2022-6-25T05:09:32Z
2022-06-25T03:10:51Z,42.805,6.029,13.3003,4.60039,2470.61,2022-6-25T05:12:35Z
2022-06-25T03:13:54Z,42.805,6.029,13.3002,4.60038,2470.624,2022-6-25T05:15:38Z
2022-06-25T03:16:57Z,42.805,6.029,13.3006,4.60039,2470.637,2022-6-25T05:18:41Z
2022-06-25T03:20:00Z,42.805,6.029,13.3005,4.60040,2470.6,2022-6-25T05:21:44Z
2022-06-25T03:23:03Z,42.805,6.029,13.3006,4.60039,2470.624,2022-6-25T05:24:47Z
2022-06-25T03:26:06Z,42.805,6.029,13.3000,4.60039,2470.6,2022-6-25T05:27:51Z
2022-06-25T03:29:09Z,42.805,6.029,13.3006,4.60040,2470.637,2022-6-25T05:30:54Z
2022-06-25T03:32:12Z,42.805,6.029,13.3001,4.60037,2470.661,2022-6-25T05:33:57Z
2022-06-25T03:35:16Z,42.805,6.029,13.3006,4.60038,2470.624,2022-6-25T05:37:00Z
2022-06-25T03:38:19Z,42.805,6.029,13.3004,4.60039,2470.633,2022-6-25T05:40:03Z
2022-06-25T03:41:22Z,42.805,6.029,13.3005,4.60039,2470.624,2022-6-25T05:43:06Z
2022-06-25T03:44:25Z,42.805,6.029,13.3005,4.60042,2470.637,2022-6-25T05:46:09Z
2022-06-25T03:47:28Z,42.805,6.029,13.3005,4.60038,2470.624,2022-6-25T05:49:12Z
2022-06-25T03:50:31Z,42.805,6.029,13.3003,4.60038,2470.624,2022-6-25T05:52:16Z
2022-06-25T03:53:34Z,42.805,6.029,13.3004,4.60038,2470.646,2022-6-25T05:55:19Z
2022-06-25T03:56:37Z,42.805,6.029,13.3007,4.60037,2470.646,2022-6-25T05:58:22Z
2022-06-25T03:59:41Z,42.805,6.029,13.3004,4.60038,2470.624,2022-6-25T06:01:25Z
2022-06-25T04:02:44Z,42.805,6.029,13.3000,4.60038,2470.646,2022-6-25T06:04:28Z
2022-06-25T04:05:47Z,42.805,6.029,13.3004,4.60037,2470.614,2022-6-25T06:07:31Z
2022-06-25T04:08:50Z,42.805,6.029,13.3004,4.60039,2470.624,2022-6-25T06:10:34Z
2022-06-25T04:11:53Z,42.805,6.029,13.3003,4.60037,2470.646,2022-6-25T06:13:37Z
2022-06-25T04:14:56Z,42.805,6.029,13.3003,4.60036,2470.646,2022-6-25T06:16:41Z
2022-06-25T04:17:59Z,42.805,6.029,13.3004,4.60037,2470.624,2022-6-25T06:19:44Z
2022-06-25T04:21:02Z,42.805,6.029,13.3006,4.60036,2470.646,2022-6-25T06:22:47Z
2022-06-25T04:24:06Z,42.805,6.029,13.3006,4.60037,2470.624,2022-6-25T06:25:50Z
2022-06-25T04:27:09Z,42.805,6.029,13.3008,4.60038,2470.624,2022-6-25T06:28:53Z
2022-06-25T04:30:12Z,42.805,6.029,13.3003,4.60039,2470.646,2022-6-25T06:31:56Z
2022-06-25T04:33:15Z,42.805,6.029,13.3004,4.60036,2470.646,2022-6-25T06:34:59Z
2022-06-25T04:36:18Z,42.805,6.029,13.3000,4.60036,2470.637,2022-6-25T06:38:02Z
2022-06-25T04:39:21Z,42.805,6.029,13.3005,4.60038,2470.624,2022-6-25T06:41:05Z
2022-06-25T04:42:24Z,42.805,6.029,13.3001,4.60039,2470.646,2022-6-25T06:44:09Z
2022-06-25T04:45:27Z,42.805,6.029,13.3001,4.60039,2470.6,2022-6-25T06:47:12Z
2022-06-25T04:48:30Z,42.805,6.029,13.2999,4.60037,2470.624,2022-6-25T06:50:15Z
2022-06-25T04:51:34Z,42.805,6.029,13.3001,4.60040,2470.624,2022-6-25T06:53:18Z
2022-06-25T04:54:37Z,42.805,6.029,13.3004,4.60036,2470.624,2022-6-25T06:56:21Z
2022-06-25T04:57:40Z,42.805,6.029,13.3004,4.60037,2470.67,2022-6-25T06:59:24Z
2022-06-25T05:00:43Z,42.805,6.029,13.3002,4.60038,2470.661,2022-6-25T07:02:27Z
2022-06-25T05:03:46Z,42.805,6.029,13.3004,4.60036,2470.646,2022-6-25T07:05:30Z
2022-06-25T05:06:49Z,42.805,6.029,13.3001,4.60039,2470.67,2022-6-25T07:08:34Z
2022-06-25T05:09:52Z,42.805,6.029,13.3004,4.60036,2470.624,2022-6-25T07:11:37Z
2022-06-25T05:12:55Z,42.805,6.029,13.3002,4.60038,2470.67,2022-6-25T07:14:40Z
2022-06-25T05:15:59Z,42.805,6.029,13.3006,4.60037,2470.646,2022-6-25T07:17:43Z
2022-06-25T05:19:02Z,42.805,6.029,13.3002,4.60039,2470.646,2022-6-25T07:20:46Z
2022-06-25T05:22:05Z,42.805,6.029,13.3008,4.60037,2470.646,2022-6-25T07:23:49Z
2022-06-25T05:25:08Z,42.805,6.029,13.3002,4.60040,2470.67,2022-6-25T07:26:52Z
2022-06-25T05:28:11Z,42.805,6.029,13.3003,4.60039,2470.646,2022-6-25T07:29:55Z
2022-06-25T05:31:14Z,42.805,6.029,13.3000,4.60037,2470.646,2022-6-25T07:32:59Z
2022-06-25T05:34:17Z,42.805,6.029,13.3002,4.60038,2470.637,2022-6-25T07:36:02Z
2022-06-25T05:37:20Z,42.805,6.029,13.3006,4.60038,2470.646,2022-6-25T07:39:05Z
2022-06-25T05:40:24Z,42.805,6.029,13.3003,4.60039,2470.684,2022-6-25T07:42:08Z
2022-06-25T05:43:27Z,42.805,6.029,13.3004,4.60038,2470.637,2022-6-25T07:45:11Z
2022-06-25T05:46:30Z,42.805,6.029,13.3007,4.60039,2470.646,2022-6-25T07:48:14Z
2022-06-25T05:49:33Z,42.805,6.029,13.3002,4.60038,2470.67,2022-6-25T07:51:17Z
2022-06-25T05:52:36Z,42.805,6.029,13.3008,4.60038,2470.684,2022-6-25T07:54:20Z
2022-06-25T05:55:39Z,42.805,6.029,13.3000,4.60039,2470.646,2022-6-25T07:57:23Z
2022-06-25T05:58:42Z,42.805,6.029,13.3008,4.60039,2470.624,2022-6-25T08:00:27Z
2022-06-25T06:01:45Z,42.805,6.029,13.3002,4.60036,2470.646,2022-6-25T08:03:30Z
2022-06-25T06:04:48Z,42.805,6.029,13.3004,4.60037,2470.6,2022-6-25T08:06:33Z
2022-06-25T06:07:52Z,42.805,6.029,13.3006,4.60039,2470.6,2022-6-25T08:09:36Z
2022-06-25T06:10:55Z,42.805,6.029,13.3010,4.60037,2470.646,2022-6-25T08:12:39Z
2022-06-25T06:13:58Z,42.805,6.029,13.3005,4.60039,2470.6,2022-6-25T08:15:42Z
2022-06-25T06:17:01Z,42.805,6.029,13.3006,4.60037,2470.614,2022-6-25T08:18:45Z
2022-06-25T06:20:04Z,42.805,6.029,13.3003,4.60042,2470.661,2022-6-25T08:21:48Z
2022-06-25T06:23:07Z,42.805,6.029,13.3004,4.60037,2470.624,2022-6-25T08:24:52Z
2022-06-25T06:26:10Z,42.805,6.029,13.3009,4.60036,2470.6,2022-6-25T08:27:55Z
2022-06-25T06:29:13Z,42.805,6.029,13.3004,4.60038,2470.637,2022-6-25T08:30:58Z
2022-06-25T06:32:17Z,42.805,6.029,13.3003,4.60040,2470.661,2022-6-25T08:34:01Z
2022-06-25T06:35:20Z,42.805,6.029,13.3004,4.60037,2470.624,2022-6-25T08:37:04Z
2022-06-25T06:38:23Z,42.805,6.029,13.3008,4.60036,2470.624,2022-6-25T08:40:07Z
2022-06-25T06:41:26Z,42.805,6.029,13.3009,4.60037,2470.637,2022-6-25T08:43:10Z
2022-06-25T06:44:29Z,42.805,6.029,13.3006,4.60036,2470.637,2022-6-25T08:46:13Z
2022-06-25T06:47:32Z,42.805,6.029,13.3004,4.60038,2470.586,2022-6-25T08:49:17Z
2022-06-25T06:50:35Z,42.805,6.029,13.3009,4.60037,2470.646,2022-6-25T08:52:20Z
2022-06-25T06:53:38Z,42.805,6.029,13.3001,4.60036,2470.614,2022-6-25T08:55:23Z
2022-06-25T06:56:42Z,42.805,6.029,13.3004,4.60036,2470.624,2022-6-25T08:58:26Z
2022-06-25T06:59:45Z,42.805,6.029,13.3005,4.60036,2470.684,2022-6-25T09:01:29Z
2022-06-25T07:02:48Z,42.805,6.029,13.3002,4.60037,2470.591,2022-6-25T09:04:32Z
2022-06-25T07:05:51Z,42.805,6.029,13.3004,4.60037,2470.624,2022-6-25T09:07:35Z
2022-06-25T07:08:54Z,42.805,6.029,13.3004,4.60039,2470.614,2022-6-25T09:10:38Z
2022-06-25T07:11:57Z,42.805,6.029,13.3004,4.60039,2470.6,2022-6-25T09:13:42Z
2022-06-25T07:15:00Z,42.805,6.029,13.3009,4.60039,2470.6,2022-6-25T09:16:45Z
2022-06-25T07:18:03Z,42.805,6.029,13.3006,4.60039,2470.577,2022-6-25T09:19:48Z
2022-06-25T07:21:06Z,42.805,6.029,13.3006,4.60037,2470.591,2022-6-25T09:22:51Z
2022-06-25T07:24:10Z,42.805,6.029,13.3006,4.60036,2470.614,2022-6-25T09:25:54Z
2022-06-25T07:27:13Z,42.805,6.029,13.3005,4.60037,2470.577,2022-6-25T09:28:57Z
2022-06-25T07:30:16Z,42.805,6.029,13.3006,4.60040,2470.624,2022-6-25T09:32:00Z
2022-06-25T07:33:19Z,42.805,6.029,13.3008,4.60037,2470.6,2022-6-25T09:35:03Z
2022-06-25T07:36:22Z,42.805,6.029,13.3006,4.60038,2470.6,2022-6-25T09:38:07Z
2022-06-25T07:39:25Z,42.805,6.029,13.3007,4.60038,2470.6,2022-6-25T09:41:10Z
2022-06-25T07:42:28Z,42.805,6.029,13.3006,4.60039,2470.624,2022-6-25T09:44:13Z
2022-06-25T07:45:31Z,42.805,6.029,13.3004,4.60037,2470.577,2022-6-25T09:47:16Z
2022-06-25T07:48:35Z,42.805,6.029,13.3005,4.60038,2470.577,2022-6-25T09:50:19Z
2022-06-25T07:51:38Z,42.805,6.029,13.3008,4.60040,2470.6,2022-6-25T09:53:22Z
2022-06-25T07:54:41Z,42.805,6.029,13.3008,4.60037,2470.577,2022-6-25T09:56:25Z
2022-06-25T07:57:44Z,42.805,6.029,13.3005,4.60038,2470.577,2022-6-25T09:59:28Z
2022-06-25T08:00:47Z,42.805,6.029,13.3009,4.60037,2470.6,2022-6-25T10:02:31Z
2022-06-25T08:03:50Z,42.805,6.029,13.3005,4.60037,2470.553,2022-6-25T10:05:35Z
2022-06-25T08:06:53Z,42.805,6.029,13.3002,4.60037,2470.591,2022-6-25T10:08:38Z
2022-06-25T08:09:56Z,42.805,6.029,13.3009,4.60039,2470.577,2022-6-25T10:11:41Z
2022-06-25T08:13:00Z,42.805,6.029,13.3006,4.60036,2470.553,2022-6-25T10:14:44Z
2022-06-25T08:16:03Z,42.805,6.029,13.3004,4.60037,2470.577,2022-6-25T10:17:47Z
2022-06-25T08:19:06Z,42.805,6.029,13.3005,4.60039,2470.553,2022-6-25T10:20:50Z
2022-06-25T08:22:09Z,42.805,6.029,13.3006,4.60038,2470.567,2022-6-25T10:23:53Z
2022-06-25T08:25:12Z,42.805,6.029,13.3006,4.60038,2470.553,2022-6-25T10:26:56Z
2022-06-25T08:28:15Z,42.805,6.029,13.3006,4.60037,2470.553,2022-6-25T10:30:00Z
2022-06-25T08:31:18Z,42.805,6.029,13.3008,4.60037,2470.567,2022-6-25T10:33:03Z
2022-06-25T08:34:21Z,42.805,6.029,13.3007,4.60038,2470.544,2022-6-25T10:36:06Z
2022-06-25T08:37:25Z,42.805,6.029,13.3004,4.60037,2470.577,2022-6-25T10:39:09Z
2022-06-25T08:40:28Z,42.805,6.029,13.3007,4.60039,2470.567,2022-6-25T10:42:12Z
2022-06-25T08:43:31Z,42.805,6.029,13.3004,4.60037,2470.567,2022-6-25T10:45:15Z
2022-06-25T08:46:34Z,42.805,6.029,13.3007,4.60038,2470.539,2022-6-25T10:48:18Z
2022-06-25T08:49:37Z,42.805,6.029,13.3009,4.60038,2470.553,2022-6-25T10:51:21Z
2022-06-25T08:52:40Z,42.805,6.029,13.3005,4.60037,2470.553,2022-6-25T10:54:25Z
2022-06-25T08:55:43Z,42.805,6.029,13.3006,4.60037,2470.53,2022-6-25T10:57:28Z
2022-06-25T08:58:46Z,42.805,6.029,13.3009,4.60038,2470.53,2022-6-25T11:00:31Z
2022-06-25T09:01:50Z,42.805,6.029,13.3009,4.60037,2470.544,2022-6-25T11:03:34Z
2022-06-25T09:04:53Z,42.805,6.029,13.3011,4.60039,2470.53,2022-6-25T11:06:37Z
2022-06-25T09:07:56Z,42.805,6.029,13.3006,4.60039,2470.553,2022-6-25T11:09:40Z
2022-06-25T09:10:59Z,42.805,6.029,13.3004,4.60037,2470.53,2022-6-25T11:12:43Z
2022-06-25T09:14:02Z,42.805,6.029,13.3006,4.60037,2470.553,2022-6-25T11:15:46Z
2022-06-25T09:17:05Z,42.805,6.029,13.3006,4.60037,2470.544,2022-6-25T11:18:50Z
2022-06-25T09:20:08Z,42.805,6.029,13.3006,4.60037,2470.544,2022-6-25T11:21:53Z
2022-06-25T09:23:11Z,42.805,6.029,13.3005,4.60037,2470.53,2022-6-25T11:24:56Z
2022-06-25T09:26:15Z,42.805,6.029,13.3004,4.60037,2470.553,2022-6-25T11:27:59Z
2022-06-25T09:29:18Z,42.805,6.029,13.3009,4.60038,2470.544,2022-6-25T11:31:02Z
2022-06-25T09:32:21Z,42.805,6.029,13.3008,4.60038,2470.53,2022-6-25T11:34:05Z
2022-06-25T09:35:24Z,42.805,6.029,13.3006,4.60037,2470.52,2022-6-25T11:37:08Z
2022-06-25T09:38:27Z,42.805,6.029,13.3004,4.60037,2470.553,2022-6-25T11:40:11Z
2022-06-25T09:41:30Z,42.805,6.029,13.3008,4.60038,2470.53,2022-6-25T11:43:15Z
2022-06-25T09:44:33Z,42.805,6.029,13.3006,4.60039,2470.53,2022-6-25T11:46:18Z
2022-06-25T09:47:36Z,42.805,6.029,13.3006,4.60037,2470.53,2022-6-25T11:49:21Z
2022-06-25T09:50:40Z,42.805,6.029,13.3008,4.60036,2470.544,2022-6-25T11:52:24Z
2022-06-25T09:53:43Z,42.805,6.029,13.3009,4.60036,2470.544,2022-6-25T11:55:27Z
2022-06-25T09:56:46Z,42.805,6.029,13.3011,4.60036,2470.52,2022-6-25T11:58:30Z
2022-06-25T09:59:49Z,42.805,6.029,13.3008,4.60037,2470.507,2022-6-25T12:01:33Z
2022-06-25T10:02:52Z,42.805,6.029,13.3004,4.60036,2470.544,2022-6-25T12:04:37Z
2022-06-25T10:05:55Z,42.805,6.029,13.3007,4.60041,2470.507,2022-6-25T12:07:40Z
2022-06-25T10:08:58Z,42.805,6.029,13.3006,4.60037,2470.544,2022-6-25T12:10:43Z
2022-06-25T10:12:01Z,42.805,6.029,13.3006,4.60036,2470.507,2022-6-25T12:13:46Z
2022-06-25T10:15:05Z,42.805,6.029,13.3008,4.60036,2470.53,2022-6-25T12:16:49Z
2022-06-25T10:18:08Z,42.805,6.029,13.3003,4.60037,2470.53,2022-6-25T12:19:52Z
2022-06-25T10:21:11Z,42.805,6.029,13.3003,4.60037,2470.53,2022-6-25T12:22:55Z
2022-06-25T10:24:14Z,42.805,6.029,13.3006,4.60036,2470.52,2022-6-25T12:25:58Z
2022-06-25T10:27:17Z,42.805,6.029,13.3004,4.60036,2470.53,2022-6-25T12:29:02Z
2022-06-25T10:30:20Z,42.805,6.029,13.3008,4.60039,2470.507,2022-6-25T12:32:05Z
2022-06-25T10:33:23Z,42.805,6.029,13.3006,4.60040,2470.52,2022-6-25T12:35:08Z
2022-06-25T10:36:26Z,42.805,6.029,13.3006,4.60037,2470.544,2022-6-25T12:38:11Z
2022-06-25T10:39:30Z,42.805,6.029,13.3008,4.60037,2470.507,2022-6-25T12:41:14Z
2022-06-25T10:42:33Z,42.805,6.029,13.3005,4.60039,2470.483,2022-6-25T12:44:17Z
2022-06-25T10:45:36Z,42.805,6.029,13.3006,4.60038,2470.507,2022-6-25T12:47:20Z
2022-06-25T10:48:39Z,42.805,6.029,13.3006,4.60037,2470.507,2022-6-25T12:50:23Z
2022-06-25T10:51:42Z,42.805,6.029,13.3006,4.60036,2470.53,2022-6-25T12:53:27Z
2022-06-25T10:54:45Z,42.805,6.029,13.3004,4.60036,2470.507,2022-6-25T12:56:30Z
2022-06-25T10:57:48Z,42.805,6.029,13.3002,4.60040,2470.52,2022-6-25T12:59:33Z
2022-06-25T11:00:52Z,42.805,6.029,13.3011,4.60039,2470.53,2022-6-25T13:02:36Z
2022-06-25T11:03:55Z,42.805,6.029,13.3004,4.60037,2470.544,2022-6-25T13:05:39Z
2022-06-25T11:06:58Z,42.805,6.029,13.3004,4.60035,2470.483,2022-6-25T13:08:42Z
2022-06-25T11:10:01Z,42.805,6.029,13.3007,4.60037,2470.52,2022-6-25T13:11:45Z
2022-06-25T11:13:04Z,42.805,6.029,13.3006,4.60037,2470.507,2022-6-25T13:14:48Z
2022-06-25T11:16:07Z,42.805,6.029,13.3007,4.60039,2470.507,2022-6-25T13:17:52Z
2022-06-25T11:19:10Z,42.805,6.029,13.3003,4.60036,2470.53,2022-6-25T13:20:55Z
2022-06-25T11:22:13Z,42.805,6.029,13.3007,4.60036,2470.53,2022-6-25T13:23:58Z
2022-06-25T11:25:17Z,42.805,6.029,13.3005,4.60036,2470.52,2022-6-25T13:27:01Z
2022-06-25T11:28:20Z,42.805,6.029,13.3004,4.60035,2470.53,2022-6-25T13:30:04Z
2022-06-25T11:31:23Z,42.805,6.029,13.3005,4.60036,2470.52,2022-6-25T13:33:07Z
2022-06-25T11:34:26Z,42.805,6.029,13.3004,4.60036,2470.52,2022-6-25T13:36:10Z
2022-06-25T11:37:29Z,42.805,6.029,13.3005,4.60035,2470.544,2022-6-25T13:39:13Z
2022-06-25T11:40:32Z,42.805,6.029,13.3004,4.60037,2470.553,2022-6-25T13:42:17Z
2022-06-25T11:43:35Z,42.805,6.029,13.3004,4.60037,2470.507,2022-6-25T13:45:20Z
2022-06-25T11:46:38Z,42.805,6.029,13.3007,4.60036,2470.497,2022-6-25T13:48:23Z
2022-06-25T11:49:42Z,42.805,6.029,13.3004,4.60039,2470.553,2022-6-25T13:51:26Z
2022-06-25T11:52:45Z,42.805,6.029,13.3004,4.60035,2470.483,2022-6-25T13:54:29Z
2022-06-25T11:55:48Z,42.805,6.029,13.3009,4.60038,2470.47,2022-6-25T13:57:32Z
2022-06-25T11:58:51Z,42.805,6.029,13.3007,4.60039,2470.53,2022-6-25T14:00:35Z
2022-06-25T12:01:54Z,42.805,6.029,13.3002,4.60038,2470.497,2022-6-25T14:03:38Z
2022-06-25T12:04:57Z,42.805,6.029,13.3011,4.60039,2470.53,2022-6-25T14:06:42Z
2022-06-25T12:08:00Z,42.805,6.029,13.3004,4.60034,2470.53,2022-6-25T14:09:45Z
2022-06-25T12:11:03Z,42.805,6.029,13.3006,4.60034,2470.507,2022-6-25T14:12:48Z
2022-06-25T12:14:07Z,42.805,6.029,13.3009,4.60034,2470.507,2022-6-25T14:15:51Z
2022-06-25T12:17:10Z,42.805,6.029,13.3005,4.60039,2470.507,2022-6-25T14:18:54Z
2022-06-25T12:20:13Z,42.805,6.029,13.3009,4.60039,2470.544,2022-6-25T14:21:57Z
2022-06-25T12:23:16Z,42.805,6.029,13.3008,4.60041,2470.567,2022-6-25T14:25:00Z
2022-06-25T12:26:19Z,42.805,6.029,13.3004,4.60035,2470.52,2022-6-25T14:28:03Z
2022-06-25T12:29:22Z,42.805,6.029,13.3006,4.60035,2470.53,2022-6-25T14:31:07Z
2022-06-25T12:32:25Z,42.805,6.029,13.3004,4.60036,2470.53,2022-6-25T14:34:10Z
2022-06-25T12:35:28Z,42.805,6.029,13.3006,4.60037,2470.53,2022-6-25T14:37:13Z
2022-06-25T12:38:32Z,42.805,6.029,13.3006,4.60035,2470.507,2022-6-25T14:40:16Z
2022-06-25T12:41:35Z,42.805,6.029,13.3010,4.60038,2470.553,2022-6-25T14:43:19Z
2022-06-25T12:44:38Z,42.805,6.029,13.3004,4.60041,2470.567,2022-6-25T14:46:22Z
2022-06-25T12:47:41Z,42.805,6.029,13.3005,4.60038,2470.53,2022-6-25T14:49:25Z
2022-06-25T12:50:44Z,42.805,6.029,13.3003,4.60039,2470.53,2022-6-25T14:52:29Z
2022-06-25T12:53:47Z,42.805,6.029,13.3005,4.60039,2470.544,2022-6-25T14:55:32Z
2022-06-25T12:56:50Z,42.805,6.029,13.3006,4.60037,2470.53,2022-6-25T14:58:35Z
2022-06-25T12:59:54Z,42.805,6.029,13.3011,4.60037,2470.544,2022-6-25T15:01:38Z
2022-06-25T13:02:57Z,42.805,6.029,13.3006,4.60042,2470.544,2022-6-25T15:04:41Z
2022-06-25T13:06:00Z,42.805,6.029,13.3006,4.60038,2470.553,2022-6-25T15:07:44Z
2022-06-25T13:09:03Z,42.805,6.029,13.3005,4.60036,2470.567,2022-6-25T15:10:47Z
2022-06-25T13:12:06Z,42.805,6.029,13.3004,4.60039,2470.553,2022-6-25T15:13:50Z
2022-06-25T13:15:09Z,42.805,6.029,13.3004,4.60036,2470.567,2022-6-25T15:16:54Z
2022-06-25T13:18:12Z,42.805,6.029,13.3006,4.60036,2470.53,2022-6-25T15:19:57Z
2022-06-25T13:21:15Z,42.805,6.029,13.3008,4.60041,2470.553,2022-6-25T15:23:00Z
2022-06-25T13:24:18Z,42.805,6.029,13.3007,4.60038,2470.577,2022-6-25T15:26:03Z
2022-06-25T13:27:22Z,42.805,6.029,13.3007,4.60038,2470.567,2022-6-25T15:29:06Z
2022-06-25T13:30:25Z,42.805,6.029,13.3006,4.60036,2470.553,2022-6-25T15:32:09Z
2022-06-25T13:33:28Z,42.805,6.029,13.3006,4.60036,2470.544,2022-6-25T15:35:12Z
2022-06-25T13:36:31Z,42.805,6.029,13.3007,4.60036,2470.577,2022-6-25T15:38:15Z
2022-06-25T13:39:34Z,42.805,6.029,13.3006,4.60039,2470.553,2022-6-25T15:41:19Z
2022-06-25T13:42:37Z,42.805,6.029,13.3005,4.60036,2470.553,2022-6-25T15:44:22Z
2022-06-25T13:45:40Z,42.805,6.029,13.3005,4.60040,2470.577,2022-6-25T15:47:25Z
2022-06-25T13:48:44Z,42.805,6.029,13.3006,4.60037,2470.567,2022-6-25T15:50:28Z
2022-06-25T13:51:47Z,42.805,6.029,13.3007,4.60038,2470.567,2022-6-25T15:53:31Z
2022-06-25T13:54:50Z,42.805,6.029,13.3006,4.60037,2470.577,2022-6-25T15:56:34Z
2022-06-25T13:57:53Z,42.805,6.029,13.3006,4.60038,2470.577,2022-6-25T15:59:37Z
2022-06-25T14:00:56Z,42.805,6.029,13.3004,4.60038,2470.591,2022-6-25T16:02:40Z
2022-06-25T14:03:59Z,42.805,6.029,13.3002,4.60038,2470.553,2022-6-25T16:05:44Z
2022-06-25T14:07:02Z,42.805,6.029,13.3006,4.60039,2470.577,2022-6-25T16:08:47Z
2022-06-25T14:10:05Z,42.805,6.029,13.3006,4.60041,2470.577,2022-6-25T16:11:50Z
2022-06-25T14:13:09Z,42.805,6.029,13.3005,4.60036,2470.614,2022-6-25T16:14:53Z
2022-06-25T14:16:12Z,42.805,6.029,13.3004,4.60036,2470.6,2022-6-25T16:17:56Z
2022-06-25T14:19:15Z,42.805,6.029,13.3009,4.60040,2470.6,2022-6-25T16:20:59Z
2022-06-25T14:22:18Z,42.805,6.029,13.3003,4.60038,2470.6,2022-6-25T16:24:02Z
2022-06-25T14:25:21Z,42.805,6.029,13.3010,4.60037,2470.624,2022-6-25T16:27:05Z
2022-06-25T14:28:24Z,42.805,6.029,13.3008,4.60042,2470.6,2022-6-25T16:30:09Z
2022-06-25T14:31:27Z,42.805,6.029,13.3006,4.60039,2470.637,2022-6-25T16:33:12Z
2022-06-25T14:34:30Z,42.805,6.029,13.3006,4.60038,2470.6,2022-6-25T16:36:15Z
2022-06-25T14:37:34Z,42.805,6.029,13.3006,4.60041,2470.591,2022-6-25T16:39:18Z
2022-06-25T14:40:37Z,42.805,6.029,13.3008,4.60041,2470.6,2022-6-25T16:42:21Z
2022-06-25T14:43:40Z,42.805,6.029,13.3002,4.60038,2470.6,2022-6-25T16:45:24Z
2022-06-25T14:46:43Z,42.805,6.029,13.3009,4.60042,2470.577,2022-6-25T16:48:27Z
2022-06-25T14:49:46Z,42.805,6.029,13.3004,4.60039,2470.646,2022-6-25T16:51:30Z
2022-06-25T14:52:49Z,42.805,6.029,13.3006,4.60043,2470.6,2022-6-25T16:54:34Z
2022-06-25T14:55:52Z,42.805,6.029,13.3006,4.60036,2470.6,2022-6-25T16:57:37Z
2022-06-25T14:58:55Z,42.805,6.029,13.3007,4.60037,2470.577,2022-6-25T17:00:40Z
2022-06-25T15:01:59Z,42.805,6.029,13.3006,4.60036,2470.624,2022-6-25T17:03:43Z
2022-06-25T15:05:02Z,42.805,6.029,13.3010,4.60039,2470.646,2022-6-25T17:06:46Z
2022-06-25T15:08:05Z,42.805,6.029,13.3005,4.60038,2470.646,2022-6-25T17:09:49Z
2022-06-25T15:11:08Z,42.805,6.029,13.3005,4.60038,2470.6,2022-6-25T17:12:52Z
2022-06-25T15:14:11Z,42.805,6.029,13.3010,4.60037,2470.614,2022-6-25T17:15:55Z